Location: Goheenville
(40.9070°N, 79.3720°W)
Time: 23:28:53
(UTC-04:00)

Meteor 2-10 Rocket - Visible Passes

Search period start: 24 June 2017 00:00
Search period end: 04 July 2017 00:00
Orbit: 733 x 886 km, 81.2° (Epoch: 24 June)

Date Brightness Start Highest point End Pass type
(mag) Time Alt. Az. Time Alt. Az. Time Alt. Az.
24 Jun 3.6 01:21:22 10° NNW 01:26:41 69° W 01:27:04 66° SW visible
24 Jun 5.9 23:18:25 10° NE 23:19:36 11° ENE 23:20:48 10° ENE visible
25 Jun 3.5 00:57:02 10° N 01:02:25 85° E 01:02:57 73° SSE visible
25 Jun 5.8 02:42:13 10° WNW 02:43:42 11° W 02:44:05 11° W visible
26 Jun 3.8 00:32:47 10° N 00:38:07 61° ENE 00:38:51 55° ESE visible
26 Jun 5.5 02:16:23 10° NW 02:19:38 16° W 02:19:59 16° W visible
27 Jun 4.2 00:08:38 10° N 00:13:47 43° ENE 00:14:46 39° ESE visible
27 Jun 5.1 01:51:21 10° NW 01:55:32 23° W 01:55:55 23° W visible
27 Jun 4.7 23:44:36 10° N 23:49:25 31° ENE 23:50:42 28° E visible
28 Jun 4.7 01:26:37 10° NNW 01:31:23 32° W 01:31:51 32° W visible
28 Jun 5.1 23:20:42 10° NNE 23:25:00 23° ENE 23:26:39 20° E visible
29 Jun 4.2 01:02:02 10° NNW 01:07:13 45° W 01:07:47 44° WSW visible
29 Jun 5.5 22:57:02 10° NNE 23:00:31 17° ENE 23:02:37 14° E visible
30 Jun 3.8 00:37:36 10° NNW 00:43:00 64° W 00:43:45 58° SW visible
30 Jun 5.8 22:33:52 10° NE 22:36:00 12° ENE 22:38:09 10° E visible
01 Jul 3.6 00:13:14 10° N 00:18:45 89° W 00:19:44 63° S visible
01 Jul 6.0 01:58:58 10° WNW 01:59:59 10° W 02:00:52 10° W visible
01 Jul 3.7 23:48:59 10° N 23:54:28 67° E 23:55:43 51° SE visible
02 Jul 5.7 01:32:47 10° NW 01:35:56 16° W 01:36:52 15° W visible
02 Jul 4.2 23:24:49 10° N 23:30:09 48° ENE 23:31:44 38° ESE visible
03 Jul 5.3 01:07:41 10° NW 01:11:51 22° W 01:12:53 21° WSW visible
03 Jul 4.6 23:00:45 10° N 23:05:47 35° ENE 23:07:46 27° ESE visible
